| time (UTC) | temp F | wind direction | speed knots | gust knots | rain 1hr in | rain 24hr in | rain mn in | humidity % | barometer mb |
| 20260509105020 | 63 | 240 | 0.0 | 0.0 | 0.00 | 0.00 | 0.00 | 89 | 1012.7 |
| 20260509104524 | 63 | 240 | 0.0 | 0.0 | 0.00 | 0.00 | 0.00 | 89 | 1012.7 |
| 20260509104027 | 63 | 240 | 0.0 | 0.0 | 0.00 | 0.00 | 0.00 | 89 | 1012.7 |
| 20260509103534 | 63 | 240 | 0.0 | 0.0 | 0.00 | 0.00 | 0.00 | 89 | 1012.7 |
| 20260509103035 | 63 | 240 | 0.0 | 1.7 | 0.00 | 0.00 | 0.00 | 89 | 1012.7 |
| 20260509102519 | 63 | 240 | 0.0 | 1.7 | 0.00 | 0.00 | 0.00 | 89 | 1012.8 |
| 20260509102022 | 63 | 244 | 0.0 | 3.5 | 0.00 | 0.00 | 0.00 | 89 | 1012.9 |
| 20260509101536 | 63 | 244 | 0.0 | 3.5 | 0.00 | 0.00 | 0.00 | 89 | 1012.8 |
| 20260509101020 | 63 | 244 | 0.9 | 3.5 | 0.00 | 0.00 | 0.00 | 89 | 1012.8 |
| 20260509100525 | 63 | 244 | 0.0 | 0.0 | 0.00 | 0.00 | 0.00 | 89 | 1012.8 |
| 20260509100034 | 63 | 244 | 0.0 | 0.0 | 0.00 | 0.00 | 0.00 | 89 | 1013.0 |
| 20260509095537 | 63 | 244 | 0.0 | 0.9 | 0.00 | 0.00 | 0.00 | 89 | 1012.9 |
| 20260509095020 | 63 | 244 | 0.0 | 1.7 | 0.00 | 0.00 | 0.00 | 89 | 1012.9 |
| 20260509094522 | 63 | 244 | 0.0 | 1.7 | 0.00 | 0.00 | 0.00 | 89 | 1012.9 |
| 20260509094049 | 63 | 244 | 0.0 | 1.7 | 0.00 | 0.00 | 0.00 | 89 | 1013.0 |
| 20260509093535 | 63 | 244 | 0.0 | 2.6 | 0.00 | 0.00 | 0.00 | 89 | 1013.0 |
| 20260509093032 | 63 | 244 | 0.0 | 2.6 | 0.00 | 0.00 | 0.00 | 89 | 1013.0 |
| 20260509092529 | 63 | 244 | 0.0 | 1.7 | 0.00 | 0.00 | 0.00 | 89 | 1013.1 |
| 20260509092030 | 63 | 244 | 0.0 | 1.7 | 0.00 | 0.00 | 0.00 | 89 | 1013.0 |
| 20260509091538 | 63 | 244 | 0.0 | 0.9 | 0.00 | 0.00 | 0.00 | 88 | 1013.1 |
| 20260509091040 | 63 | 244 | 0.0 | 1.7 | 0.00 | 0.00 | 0.00 | 88 | 1013.2 |
| 20260509090522 | 63 | 244 | 0.0 | 1.7 | 0.00 | 0.00 | 0.00 | 88 | 1013.2 |
| 20260509090020 | 63 | 244 | 0.0 | 1.7 | 0.00 | 0.00 | 0.00 | 88 | 1013.2 |
| 20260509085546 | 63 | 244 | 0.0 | 1.7 | 0.00 | 0.00 | 0.00 | 89 | 1013.2 |
| 20260509085026 | 63 | 244 | 0.0 | 1.7 | 0.00 | 0.00 | 0.00 | 88 | 1013.2 |
| 20260509084526 | 63 | 244 | 0.0 | 1.7 | 0.00 | 0.00 | 0.00 | 88 | 1013.2 |
| 20260509084021 | 63 | 246 | 0.0 | 0.9 | 0.00 | 0.00 | 0.00 | 88 | 1013.2 |
| 20260509083520 | 63 | 251 | 0.0 | 2.6 | 0.00 | 0.00 | 0.00 | 88 | 1013.3 |
| 20260509083050 | 63 | 251 | 0.9 | 2.6 | 0.00 | 0.00 | 0.00 | 88 | 1013.3 |
| 20260509082525 | 63 | 250 | 0.9 | 2.6 | 0.00 | 0.00 | 0.00 | 88 | 1013.4 |
| 20260509082052 | 63 | 250 | 0.9 | 1.7 | 0.00 | 0.00 | 0.00 | 88 | 1013.4 |
| 20260509081538 | 63 | 251 | 0.0 | 1.7 | 0.00 | 0.00 | 0.00 | 88 | 1013.5 |
| 20260509081043 | 63 | 252 | 0.0 | 0.9 | 0.00 | 0.00 | 0.00 | 88 | 1013.5 |
| 20260509080528 | 63 | 252 | 0.0 | 0.9 | 0.00 | 0.00 | 0.00 | 88 | 1013.5 |
| 20260509080023 | 63 | 252 | 0.0 | 0.9 | 0.00 | 0.00 | 0.00 | 88 | 1013.6 |
| 20260509075526 | 63 | 252 | 0.0 | 1.7 | 0.00 | 0.00 | 0.00 | 88 | 1013.7 |
| 20260509075032 | 63 | 252 | 0.0 | 1.7 | 0.00 | 0.00 | 0.00 | 88 | 1013.8 |
| 20260509074538 | 63 | 252 | 0.0 | 1.7 | 0.00 | 0.00 | 0.00 | 88 | 1013.9 |
| 20260509074019 | 63 | 252 | 0.0 | 1.7 | 0.00 | 0.00 | 0.00 | 88 | 1013.9 |
| 20260509073522 | 63 | 252 | 0.0 | 2.6 | 0.00 | 0.00 | 0.00 | 88 | 1013.9 |
| 20260509073025 | 63 | 252 | 0.0 | 2.6 | 0.00 | 0.00 | 0.00 | 88 | 1013.9 |
| 20260509072550 | 63 | 252 | 0.0 | 2.6 | 0.00 | 0.00 | 0.00 | 88 | 1013.8 |
| 20260509072029 | 63 | 252 | 0.0 | 2.6 | 0.00 | 0.00 | 0.00 | 88 | 1013.8 |
| 20260509071534 | 63 | 252 | 0.9 | 2.6 | 0.00 | 0.00 | 0.00 | 88 | 1013.8 |
| 20260509071041 | 63 | 254 | 0.0 | 0.9 | 0.00 | 0.00 | 0.00 | 88 | 1013.8 |
| 20260509070522 | 63 | 254 | 0.0 | 1.7 | 0.00 | 0.00 | 0.00 | 88 | 1013.8 |
| 20260509070028 | 63 | 254 | 0.0 | 1.7 | 0.00 | 0.00 | 0.00 | 88 | 1013.9 |
| 20260509065528 | 63 | 254 | 0.0 | 0.0 | 0.00 | 0.00 | 0.00 | 88 | 1014.0 |
| 20260509065038 | 63 | 254 | 0.0 | 1.7 | 0.00 | 0.00 | 0.00 | 88 | 1014.0 |
| 20260509064554 | 63 | 254 | 0.9 | 1.7 | 0.00 | 0.00 | 0.00 | 88 | 1014.0 |
| 20260509064102 | 63 | 254 | 0.0 | 0.0 | 0.00 | 0.00 | 0.00 | 88 | 1014.0 |
| 20260509063539 | 63 | 254 | 0.0 | 0.0 | 0.00 | 0.00 | 0.00 | 88 | 1014.0 |
| 20260509063020 | 63 | 254 | 0.0 | 0.0 | 0.00 | 0.00 | 0.00 | 88 | 1014.0 |
| 20260509062536 | 63 | 254 | 0.0 | 0.0 | 0.00 | 0.00 | 0.00 | 88 | 1014.0 |
| 20260509062020 | 63 | 254 | 0.0 | 0.0 | 0.00 | 0.00 | 0.00 | 88 | 1014.0 |
| 20260509061521 | 63 | 254 | 0.0 | 0.0 | 0.00 | 0.00 | 0.00 | 88 | 1014.0 |
| 20260509061025 | 63 | 254 | 0.0 | 0.0 | 0.00 | 0.00 | 0.00 | 88 | 1014.1 |
| 20260509060528 | 63 | 254 | 0.0 | 0.0 | 0.00 | 0.00 | 0.00 | 88 | 1014.1 |
| 20260509060037 | 63 | 254 | 0.0 | 0.0 | 0.00 | 0.00 | 0.00 | 88 | 1014.1 |
| 20260509055522 | 63 | 254 | 0.0 | 0.0 | 0.00 | 0.00 | 0.00 | 88 | 1014.2 |
| 20260509055024 | 63 | 254 | 0.0 | 0.0 | 0.00 | 0.00 | 0.00 | 88 | 1014.2 |
| 20260509054526 | 63 | 254 | 0.0 | 0.0 | 0.00 | 0.00 | 0.00 | 88 | 1014.1 |
| 20260509054029 | 63 | 254 | 0.0 | 0.0 | 0.00 | 0.00 | 0.00 | 88 | 1014.2 |
| 20260509053538 | 63 | 254 | 0.0 | 0.0 | 0.00 | 0.00 | 0.00 | 88 | 1014.2 |
| 20260509053033 | 63 | 254 | 0.0 | 1.7 | 0.00 | 0.00 | 0.00 | 87 | 1014.2 |
| 20260509052559 | 63 | 254 | 0.0 | 1.7 | 0.00 | 0.00 | 0.00 | 87 | 1014.3 |
| 20260509052026 | 63 | 255 | 0.9 | 2.6 | 0.00 | 0.00 | 0.00 | 88 | 1014.2 |
| 20260509051535 | 63 | 255 | 0.0 | 2.6 | 0.00 | 0.00 | 0.00 | 88 | 1014.2 |
| 20260509051020 | 63 | 255 | 0.9 | 2.6 | 0.00 | 0.00 | 0.00 | 88 | 1014.2 |
| 20260509050524 | 63 | 255 | 0.0 | 1.7 | 0.00 | 0.00 | 0.00 | 88 | 1014.2 |
| 20260509050050 | 63 | 255 | 0.0 | 1.7 | 0.00 | 0.00 | 0.00 | 88 | 1014.2 |
| 20260509045537 | 63 | 255 | 0.9 | 3.5 | 0.00 | 0.00 | 0.00 | 88 | 1014.3 |
| 20260509045019 | 63 | 255 | 1.7 | 3.5 | 0.00 | 0.00 | 0.00 | 87 | 1014.2 |
| 20260509044524 | 63 | 259 | 0.9 | 3.5 | 0.00 | 0.00 | 0.00 | 87 | 1014.2 |
| 20260509044027 | 63 | 259 | 0.0 | 3.5 | 0.00 | 0.00 | 0.00 | 87 | 1014.1 |
| 20260509043554 | 63 | 261 | 0.9 | 2.6 | 0.00 | 0.00 | 0.00 | 87 | 1014.1 |
| 20260509043038 | 63 | 261 | 0.9 | 2.6 | 0.00 | 0.00 | 0.00 | 87 | 1014.1 |
| 20260509042524 | 63 | 261 | 0.9 | 1.7 | 0.00 | 0.00 | 0.00 | 87 | 1014.1 |
| 20260509042029 | 63 | 261 | 0.0 | 2.6 | 0.00 | 0.00 | 0.00 | 87 | 1014.0 |
| 20260509041536 | 63 | 261 | 0.0 | 2.6 | 0.00 | 0.00 | 0.00 | 87 | 1014.0 |
| 20260509041020 | 63 | 284 | 0.9 | 2.6 | 0.00 | 0.00 | 0.00 | 87 | 1014.0 |
| 20260509040527 | 64 | 285 | 0.0 | 2.6 | 0.00 | 0.00 | 0.00 | 87 | 1013.9 |
| 20260509040027 | 64 | 285 | 0.9 | 2.6 | 0.00 | 0.00 | 0.00 | 87 | 1013.9 |
| 20260509035530 | 64 | 285 | 0.0 | 0.9 | 0.00 | 0.00 | 0.00 | 87 | 1013.9 |
| 20260509035059 | 64 | 285 | 0.0 | 3.5 | 0.00 | 0.00 | 0.00 | 87 | 1013.9 |
| 20260509034520 | 64 | 285 | 0.9 | 3.5 | 0.00 | 0.00 | 0.00 | 87 | 1013.8 |
| 20260509034025 | 64 | 302 | 0.9 | 1.7 | 0.00 | 0.00 | 0.00 | 87 | 1013.8 |
| 20260509033530 | 64 | 327 | 0.0 | 0.9 | 0.00 | 0.00 | 0.00 | 86 | 1013.7 |
| 20260509033034 | 63 | 327 | 0.0 | 0.9 | 0.00 | 0.00 | 0.00 | 86 | 1013.6 |
| 20260509032538 | 63 | 327 | 0.0 | 0.9 | 0.00 | 0.00 | 0.00 | 86 | 1013.6 |
| 20260509032021 | 63 | 327 | 0.0 | 1.7 | 0.00 | 0.00 | 0.00 | 86 | 1013.6 |
| 20260509031527 | 63 | 327 | 0.0 | 4.3 | 0.00 | 0.00 | 0.00 | 86 | 1013.6 |
| 20260509031028 | 64 | 327 | 0.9 | 4.3 | 0.00 | 0.00 | 0.00 | 85 | 1013.6 |
| 20260509030540 | 64 | 273 | 0.9 | 3.5 | 0.00 | 0.00 | 0.00 | 85 | 1013.6 |
| 20260509030020 | 64 | 282 | 0.9 | 3.5 | 0.00 | 0.00 | 0.00 | 85 | 1013.6 |
| 20260509025546 | 64 | 267 | 0.9 | 4.3 | 0.00 | 0.00 | 0.00 | 85 | 1013.6 |
| 20260509025025 | 64 | 269 | 1.7 | 5.2 | 0.00 | 0.00 | 0.00 | 85 | 1013.5 |
| 20260509024551 | 64 | 257 | 1.7 | 5.2 | 0.00 | 0.00 | 0.00 | 85 | 1013.4 |
| 20260509024054 | 64 | 225 | 1.7 | 4.3 | 0.00 | 0.00 | 0.00 | 84 | 1013.4 |
| 20260509023539 | 64 | 272 | 1.7 | 4.3 | 0.00 | 0.00 | 0.00 | 84 | 1013.3 |
| 20260509023023 | 64 | 296 | 2.6 | 4.3 | 0.00 | 0.00 | 0.00 | 84 | 1013.3 |
| 20260509022524 | 65 | 311 | 0.9 | 5.2 | 0.00 | 0.00 | 0.00 | 84 | 1013.3 |
| 20260509022024 | 65 | 261 | 0.9 | 5.2 | 0.00 | 0.00 | 0.00 | 83 | 1013.3 |
| 20260509021523 | 65 | 249 | 1.7 | 4.3 | 0.00 | 0.00 | 0.00 | 83 | 1013.2 |
| 20260509021027 | 65 | 267 | 1.7 | 4.3 | 0.00 | 0.00 | 0.00 | 83 | 1013.1 |
| 20260509020528 | 65 | 305 | 1.7 | 4.3 | 0.00 | 0.00 | 0.00 | 83 | 1013.1 |
| 20260509020037 | 65 | 327 | 1.7 | 4.3 | 0.00 | 0.00 | 0.00 | 82 | 1013.1 |
| 20260509015521 | 65 | 336 | 1.7 | 4.3 | 0.00 | 0.00 | 0.00 | 82 | 1013.1 |
| 20260509015022 | 65 | 269 | 0.9 | 5.2 | 0.00 | 0.00 | 0.00 | 82 | 1013.0 |
| 20260509014537 | 65 | 251 | 1.7 | 6.1 | 0.00 | 0.00 | 0.00 | 81 | 1013.0 |
| 20260509014045 | 66 | 272 | 2.6 | 6.1 | 0.00 | 0.00 | 0.00 | 82 | 1013.0 |
| 20260509013549 | 66 | 262 | 1.7 | 6.1 | 0.00 | 0.00 | 0.00 | 81 | 1013.0 |
| 20260509013022 | 66 | 289 | 2.6 | 6.1 | 0.00 | 0.00 | 0.00 | 81 | 1013.0 |
| 20260509012528 | 66 | 315 | 2.6 | 6.1 | 0.00 | 0.00 | 0.00 | 80 | 1013.0 |
| 20260509012034 | 67 | 286 | 2.6 | 5.2 | 0.00 | 0.00 | 0.00 | 79 | 1013.0 |
| 20260509011539 | 67 | 297 | 1.7 | 5.2 | 0.00 | 0.00 | 0.00 | 79 | 1013.0 |
| 20260509011045 | 67 | 271 | 1.7 | 5.2 | 0.00 | 0.00 | 0.00 | 79 | 1012.9 |
| 20260509010551 | 67 | 273 | 1.7 | 6.1 | 0.00 | 0.00 | 0.00 | 78 | 1012.9 |
| 20260509010031 | 67 | 303 | 2.6 | 6.1 | 0.00 | 0.00 | 0.00 | 78 | 1013.0 |
| 20260509005535 | 68 | 276 | 2.6 | 6.1 | 0.00 | 0.00 | 0.00 | 78 | 1013.0 |
| 20260509005020 | 68 | 298 | 3.5 | 6.1 | 0.00 | 0.00 | 0.00 | 77 | 1013.0 |
| 20260509004529 | 68 | 288 | 3.5 | 5.2 | 0.00 | 0.00 | 0.00 | 76 | 1013.1 |
| 20260509004035 | 69 | 236 | 3.5 | 6.1 | 0.00 | 0.00 | 0.00 | 76 | 1013.0 |
| 20260509003538 | 69 | 296 | 3.5 | 6.1 | 0.00 | 0.00 | 0.00 | 75 | 1013.0 |
| 20260509003021 | 70 | 291 | 2.6 | 7.0 | 0.00 | 0.00 | 0.00 | 74 | 1012.9 |
| 20260509002539 | 70 | 306 | 3.5 | 7.0 | 0.00 | 0.00 | 0.00 | 73 | 1012.9 |
| 20260509002035 | 70 | 290 | 2.6 | 5.2 | 0.00 | 0.00 | 0.00 | 73 | 1012.9 |
| 20260509001558 | 71 | 326 | 2.6 | 6.1 | 0.00 | 0.00 | 0.00 | 73 | 1012.9 |
| 20260509001021 | 70 | 273 | 2.6 | 8.7 | 0.00 | 0.00 | 0.00 | 73 | 1013.0 |
| 20260509000524 | 70 | 310 | 3.5 | 8.7 | 0.00 | 0.00 | 0.00 | 73 | 1013.0 |
| 20260509000030 | 70 | 342 | 2.6 | 8.7 | 0.00 | 0.00 | 0.00 | 73 | 1013.1 |
| 20260508235531 | 70 | 284 | 4.3 | 8.7 | 0.00 | 0.00 | 0.00 | 73 | 1013.1 |
| 20260508235036 | 70 | 248 | 3.5 | 7.8 | 0.00 | 0.00 | 0.00 | 73 | 1013.1 |
| 20260508234520 | 70 | 279 | 3.5 | 8.7 | 0.00 | 0.00 | 0.00 | 74 | 1013.2 |
| 20260508234020 | 70 | 284 | 4.3 | 8.7 | 0.00 | 0.00 | 0.00 | 74 | 1013.3 |
| 20260508233523 | 70 | 309 | 4.3 | 9.6 | 0.00 | 0.00 | 0.00 | 74 | 1013.3 |
| 20260508233054 | 70 | 265 | 4.3 | 10.4 | 0.00 | 0.00 | 0.00 | 73 | 1013.3 |
| 20260508232520 | 70 | 322 | 4.3 | 10.4 | 0.00 | 0.00 | 0.00 | 73 | 1013.3 |
| 20260508232024 | 71 | 277 | 4.3 | 9.6 | 0.00 | 0.00 | 0.00 | 73 | 1013.4 |
| 20260508231525 | 71 | 339 | 5.2 | 9.6 | 0.00 | 0.00 | 0.00 | 72 | 1013.4 |
| 20260508231048 | 72 | 331 | 4.3 | 8.7 | 0.00 | 0.00 | 0.00 | 72 | 1013.5 |
| 20260508230537 | 71 | 327 | 3.5 | 8.7 | 0.00 | 0.00 | 0.00 | 72 | 1013.6 |
| 20260508230021 | 71 | 286 | 2.6 | 10.4 | 0.00 | 0.00 | 0.00 | 72 | 1013.5 |
| 20260508225548 | 71 | 314 | 4.3 | 10.4 | 0.00 | 0.00 | 0.00 | 72 | 1013.5 |
| 20260508225034 | 72 | 323 | 3.5 | 9.6 | 0.00 | 0.00 | 0.00 | 72 | 1013.6 |
| 20260508224517 | 72 | 351 | 4.3 | 9.6 | 0.00 | 0.00 | 0.00 | 72 | 1013.6 |
| 20260508224023 | 72 | 327 | 4.3 | 9.6 | 0.00 | 0.00 | 0.00 | 71 | 1013.7 |
| 20260508223527 | 72 | 288 | 4.3 | 9.6 | 0.00 | 0.00 | 0.00 | 70 | 1013.7 |
| 20260508223032 | 72 | 261 | 4.3 | 8.7 | 0.00 | 0.00 | 0.00 | 70 | 1013.8 |
| 20260508222520 | 72 | 297 | 4.3 | 9.6 | 0.00 | 0.00 | 0.00 | 70 | 1013.8 |
| 20260508222024 | 72 | 308 | 6.1 | 9.6 | 0.00 | 0.00 | 0.00 | 69 | 1013.8 |
| 20260508221529 | 72 | 286 | 5.2 | 9.6 | 0.00 | 0.00 | 0.00 | 69 | 1013.9 |
| 20260508221039 | 73 | 287 | 4.3 | 8.7 | 0.00 | 0.00 | 0.00 | 69 | 1013.9 |
| 20260508220523 | 73 | 263 | 5.2 | 8.7 | 0.00 | 0.00 | 0.00 | 69 | 1013.9 |
| 20260508220051 | 73 | 270 | 4.3 | 10.4 | 0.00 | 0.00 | 0.00 | 69 | 1013.9 |
| 20260508215601 | 72 | 321 | 3.5 | 10.4 | 0.00 | 0.00 | 0.00 | 70 | 1014.1 |
| 20260508215022 | 72 | 327 | 4.3 | 9.6 | 0.00 | 0.00 | 0.00 | 70 | 1014.1 |
| 20260508214549 | 72 | 277 | 3.5 | 10.4 | 0.00 | 0.00 | 0.00 | 71 | 1014.1 |
| 20260508214031 | 72 | 331 | 5.2 | 10.4 | 0.00 | 0.00 | 0.00 | 70 | 1014.2 |
| 20260508213535 | 72 | 282 | 4.3 | 10.4 | 0.00 | 0.00 | 0.00 | 70 | 1014.2 |
| 20260508213027 | 72 | 274 | 6.1 | 10.4 | 0.00 | 0.00 | 0.00 | 70 | 1014.2 |
| 20260508212531 | 72 | 294 | 4.3 | 10.4 | 0.00 | 0.00 | 0.00 | 69 | 1014.3 |
| 20260508212037 | 72 | 197 | 5.2 | 10.4 | 0.00 | 0.00 | 0.00 | 70 | 1014.2 |
| 20260508211524 | 73 | 276 | 5.2 | 7.8 | 0.00 | 0.00 | 0.00 | 69 | 1014.3 |
| 20260508211029 | 73 | 313 | 3.5 | 7.8 | 0.00 | 0.00 | 0.00 | 69 | 1014.2 |
| 20260508210535 | 73 | 304 | 3.5 | 7.8 | 0.00 | 0.00 | 0.00 | 70 | 1014.3 |
| 20260508210020 | 72 | 286 | 3.5 | 8.7 | 0.00 | 0.00 | 0.00 | 71 | 1014.2 |
| 20260508205526 | 71 | 300 | 4.3 | 9.6 | 0.00 | 0.00 | 0.00 | 71 | 1014.3 |
| 20260508205035 | 72 | 290 | 5.2 | 12.2 | 0.00 | 0.00 | 0.00 | 70 | 1014.3 |
| 20260508204520 | 72 | 320 | 5.2 | 12.2 | 0.00 | 0.00 | 0.00 | 69 | 1014.3 |
| 20260508204027 | 72 | 305 | 5.2 | 10.4 | 0.00 | 0.00 | 0.00 | 69 | 1014.4 |
| 20260508203533 | 72 | 311 | 4.3 | 10.4 | 0.00 | 0.00 | 0.00 | 69 | 1014.3 |
| 20260508203039 | 73 | 265 | 4.3 | 9.6 | 0.00 | 0.00 | 0.00 | 69 | 1014.4 |
| 20260508202523 | 73 | 229 | 3.5 | 9.6 | 0.00 | 0.00 | 0.00 | 69 | 1014.4 |
| 20260508202031 | 73 | 314 | 3.5 | 7.8 | 0.00 | 0.00 | 0.00 | 69 | 1014.5 |
| 20260508201555 | 73 | 303 | 3.5 | 9.6 | 0.00 | 0.00 | 0.00 | 69 | 1014.5 |
| 20260508201038 | 72 | 258 | 4.3 | 9.6 | 0.00 | 0.00 | 0.00 | 70 | 1014.5 |
| 20260508200520 | 72 | 264 | 3.5 | 8.7 | 0.00 | 0.00 | 0.00 | 70 | 1014.5 |
| 20260508200025 | 72 | 316 | 4.3 | 8.7 | 0.00 | 0.00 | 0.00 | 70 | 1014.6 |
| 20260508195527 | 72 | 260 | 5.2 | 8.7 | 0.00 | 0.00 | 0.00 | 70 | 1014.6 |
| 20260508195029 | 72 | 240 | 4.3 | 9.6 | 0.00 | 0.00 | 0.00 | 70 | 1014.7 |
| 20260508194538 | 72 | 235 | 3.5 | 9.6 | 0.00 | 0.00 | 0.00 | 71 | 1014.8 |
| 20260508194043 | 72 | 263 | 4.3 | 8.7 | 0.00 | 0.00 | 0.00 | 70 | 1014.8 |
| 20260508193526 | 72 | 288 | 2.6 | 8.7 | 0.00 | 0.00 | 0.00 | 70 | 1014.7 |
| 20260508193029 | 72 | 263 | 3.5 | 8.7 | 0.00 | 0.00 | 0.00 | 71 | 1014.8 |
| 20260508192528 | 72 | 298 | 3.5 | 9.6 | 0.00 | 0.00 | 0.00 | 70 | 1014.9 |
| 20260508192038 | 72 | 263 | 4.3 | 9.6 | 0.00 | 0.00 | 0.00 | 71 | 1015.0 |
| 20260508191521 | 72 | 284 | 4.3 | 8.7 | 0.00 | 0.00 | 0.00 | 70 | 1015.1 |
| 20260508191023 | 72 | 269 | 3.5 | 9.6 | 0.00 | 0.00 | 0.00 | 71 | 1015.2 |
| 20260508190526 | 72 | 322 | 4.3 | 9.6 | 0.00 | 0.00 | 0.00 | 72 | 1015.2 |
| 20260508190024 | 72 | 269 | 4.3 | 7.8 | 0.00 | 0.00 | 0.00 | 71 | 1015.2 |
| 20260508185533 | 72 | 236 | 4.3 | 7.8 | 0.00 | 0.00 | 0.00 | 71 | 1015.3 |
| 20260508185020 | 72 | 281 | 3.5 | 8.7 | 0.00 | 0.00 | 0.00 | 71 | 1015.3 |
| 20260508184521 | 72 | 238 | 3.5 | 8.7 | 0.00 | 0.00 | 0.00 | 72 | 1015.4 |
| 20260508184025 | 71 | 263 | 5.2 | 8.7 | 0.00 | 0.00 | 0.00 | 72 | 1015.3 |
| 20260508183530 | 72 | 236 | 3.5 | 7.8 | 0.00 | 0.00 | 0.00 | 72 | 1015.4 |
| 20260508183036 | 71 | 290 | 3.5 | 7.0 | 0.00 | 0.00 | 0.00 | 72 | 1015.4 |
| 20260508182538 | 71 | 292 | 2.6 | 8.7 | 0.00 | 0.00 | 0.00 | 72 | 1015.4 |
| 20260508182044 | 71 | 251 | 2.6 | 8.7 | 0.00 | 0.00 | 0.00 | 72 | 1015.4 |
| 20260508181523 | 71 | 259 | 3.5 | 7.8 | 0.00 | 0.00 | 0.00 | 72 | 1015.5 |
| 20260508181051 | 71 | 250 | 1.7 | 6.1 | 0.00 | 0.00 | 0.00 | 73 | 1015.5 |
| 20260508180536 | 70 | 293 | 1.7 | 5.2 | 0.00 | 0.00 | 0.00 | 74 | 1015.6 |
| 20260508180017 | 70 | 281 | 2.6 | 5.2 | 0.00 | 0.00 | 0.00 | 74 | 1015.6 |
| 20260508175521 | 69 | 270 | 2.6 | 5.2 | 0.00 | 0.00 | 0.00 | 76 | 1015.6 |
| 20260508175022 | 69 | 254 | 1.7 | 4.3 | 0.00 | 0.00 | 0.00 | 76 | 1015.7 |
| 20260508174550 | 68 | 251 | 2.6 | 4.3 | 0.00 | 0.00 | 0.00 | 77 | 1015.7 |
| 20260508174100 | 68 | 270 | 0.9 | 4.3 | 0.00 | 0.00 | 0.00 | 78 | 1015.7 |
| 20260508173524 | 68 | 257 | 1.7 | 5.2 | 0.00 | 0.00 | 0.00 | 78 | 1015.7 |
| 20260508173019 | 67 | 301 | 1.7 | 5.2 | 0.00 | 0.00 | 0.00 | 79 | 1015.8 |
| 20260508172547 | 67 | 248 | 0.9 | 5.2 | 0.00 | 0.00 | 0.00 | 79 | 1015.8 |
| 20260508172018 | 67 | 262 | 1.7 | 5.2 | 0.00 | 0.00 | 0.00 | 79 | 1015.9 |
| 20260508171521 | 66 | 300 | 0.9 | 2.6 | 0.00 | 0.00 | 0.00 | 80 | 1015.8 |
| 20260508171024 | 66 | 303 | 0.0 | 2.6 | 0.00 | 0.00 | 0.00 | 80 | 1015.8 |
| 20260508170525 | 66 | 303 | 0.0 | 2.6 | 0.00 | 0.00 | 0.00 | 80 | 1015.8 |
| 20260508170028 | 66 | 31 | 0.0 | 2.6 | 0.00 | 0.00 | 0.00 | 81 | 1015.9 |
| 20260508165531 | 66 | 31 | 0.0 | 2.6 | 0.00 | 0.00 | 0.00 | 80 | 1015.9 |
| 20260508165033 | 66 | 29 | 0.0 | 2.6 | 0.00 | 0.00 | 0.00 | 81 | 1016.0 |
| 20260508164521 | 65 | 28 | 0.0 | 2.6 | 0.00 | 0.00 | 0.00 | 81 | 1016.0 |
| 20260508164025 | 65 | 38 | 0.0 | 1.7 | 0.00 | 0.00 | 0.00 | 81 | 1016.0 |
| 20260508163536 | 65 | 38 | 0.9 | 1.7 | 0.00 | 0.00 | 0.00 | 81 | 1016.0 |
| 20260508163041 | 65 | 74 | 0.0 | 0.9 | 0.00 | 0.00 | 0.00 | 82 | 1016.0 |
| 20260508162545 | 65 | 74 | 0.0 | 0.9 | 0.00 | 0.00 | 0.00 | 83 | 1016.0 |
| 20260508162029 | 65 | 74 | 0.0 | 0.9 | 0.00 | 0.00 | 0.00 | 83 | 1016.0 |
| 20260508161520 | 64 | 74 | 0.0 | 2.6 | 0.00 | 0.00 | 0.00 | 83 | 1016.1 |
| 20260508161021 | 64 | 74 | 0.9 | 2.6 | 0.00 | 0.00 | 0.00 | 83 | 1016.0 |
| 20260508160523 | 64 | 74 | 0.0 | 0.9 | 0.00 | 0.00 | 0.00 | 84 | 1016.1 |
| 20260508160027 | 64 | 74 | 0.0 | 0.9 | 0.00 | 0.00 | 0.00 | 84 | 1016.0 |
| 20260508155530 | 64 | 74 | 0.0 | 0.9 | 0.00 | 0.00 | 0.00 | 84 | 1016.0 |
| 20260508155036 | 63 | 74 | 0.0 | 1.7 | 0.00 | 0.00 | 0.00 | 85 | 1016.1 |
| 20260508154521 | 63 | 74 | 0.0 | 1.7 | 0.00 | 0.00 | 0.00 | 85 | 1016.0 |
| 20260508154024 | 63 | 74 | 0.0 | 0.9 | 0.00 | 0.00 | 0.00 | 85 | 1016.0 |
| 20260508153527 | 63 | 74 | 0.0 | 0.0 | 0.00 | 0.00 | 0.00 | 85 | 1016.1 |
| 20260508153036 | 63 | 74 | 0.0 | 2.6 | 0.00 | 0.00 | 0.00 | 85 | 1016.1 |
| 20260508152540 | 63 | 74 | 0.0 | 2.6 | 0.00 | 0.00 | 0.00 | 85 | 1016.2 |
| 20260508152025 | 63 | 74 | 0.9 | 3.5 | 0.00 | 0.00 | 0.00 | 85 | 1016.1 |
| 20260508151525 | 63 | 75 | 1.7 | 3.5 | 0.00 | 0.00 | 0.00 | 86 | 1016.1 |
| 20260508151027 | 63 | 73 | 0.9 | 3.5 | 0.00 | 0.00 | 0.00 | 86 | 1016.0 |
| 20260508150529 | 63 | 65 | 1.7 | 3.5 | 0.00 | 0.00 | 0.00 | 86 | 1016.0 |
| 20260508150029 | 63 | 61 | 0.0 | 2.6 | 0.00 | 0.00 | 0.00 | 86 | 1016.1 |
| 20260508145557 | 63 | 61 | 0.9 | 2.6 | 0.00 | 0.00 | 0.00 | 86 | 1016.0 |
| 20260508145017 | 63 | 60 | 0.0 | 2.6 | 0.00 | 0.00 | 0.00 | 86 | 1016.0 |
| 20260508144524 | 63 | 60 | 1.7 | 3.5 | 0.00 | 0.00 | 0.00 | 86 | 1016.0 |
| 20260508144044 | 62 | 61 | 1.7 | 3.5 | 0.00 | 0.00 | 0.00 | 87 | 1016.0 |
| 20260508143528 | 62 | 63 | 1.7 | 3.5 | 0.00 | 0.00 | 0.00 | 87 | 1015.9 |
| 20260508143034 | 62 | 64 | 0.9 | 2.6 | 0.00 | 0.00 | 0.00 | 87 | 1016.0 |
| 20260508142537 | 62 | 63 | 0.9 | 2.6 | 0.00 | 0.00 | 0.00 | 87 | 1016.0 |
| 20260508142020 | 62 | 63 | 0.9 | 2.6 | 0.00 | 0.00 | 0.00 | 87 | 1015.9 |
| 20260508141526 | 62 | 63 | 0.0 | 3.5 | 0.00 | 0.00 | 0.00 | 87 | 1015.9 |
| 20260508141030 | 62 | 63 | 0.0 | 3.5 | 0.00 | 0.00 | 0.00 | 87 | 1015.8 |
| 20260508140521 | 62 | 63 | 1.7 | 4.3 | 0.00 | 0.00 | 0.00 | 87 | 1015.8 |
| 20260508140019 | 62 | 63 | 2.6 | 4.3 | 0.00 | 0.00 | 0.00 | 87 | 1015.8 |
| 20260508135545 | 62 | 355 | 0.9 | 2.6 | 0.00 | 0.00 | 0.00 | 87 | 1015.6 |
| 20260508135028 | 62 | 351 | 1.7 | 2.6 | 0.00 | 0.00 | 0.00 | 87 | 1015.7 |
| 20260508134532 | 62 | 346 | 0.9 | 3.5 | 0.00 | 0.00 | 0.00 | 87 | 1015.7 |
| 20260508134100 | 62 | 346 | 0.0 | 3.5 | 0.00 | 0.00 | 0.00 | 88 | 1015.6 |
| 20260508133519 | 62 | 222 | 0.9 | 2.6 | 0.00 | 0.00 | 0.00 | 88 | 1015.6 |
| 20260508133035 | 62 | 222 | 0.9 | 1.7 | 0.00 | 0.00 | 0.00 | 88 | 1015.6 |
| 20260508132542 | 62 | 222 | 0.0 | 1.7 | 0.00 | 0.00 | 0.00 | 88 | 1015.5 |
| 20260508132025 | 62 | 222 | 0.0 | 1.7 | 0.00 | 0.00 | 0.00 | 88 | 1015.4 |
| 20260508131530 | 62 | 222 | 0.0 | 0.9 | 0.00 | 0.00 | 0.00 | 87 | 1015.5 |
| 20260508131017 | 62 | 222 | 0.0 | 0.9 | 0.00 | 0.00 | 0.00 | 87 | 1015.5 |
| 20260508130523 | 62 | 222 | 0.0 | 0.9 | 0.00 | 0.00 | 0.00 | 87 | 1015.4 |
| 20260508130027 | 62 | 222 | 0.0 | 0.9 | 0.00 | 0.00 | 0.00 | 87 | 1015.4 |
| 20260508125531 | 62 | 222 | 0.0 | 0.9 | 0.00 | 0.00 | 0.00 | 87 | 1015.3 |
| 20260508125056 | 62 | 222 | 0.0 | 2.6 | 0.00 | 0.00 | 0.00 | 87 | 1015.3 |
| 20260508124519 | 62 | 222 | 0.0 | 2.6 | 0.00 | 0.00 | 0.00 | 87 | 1015.3 |
| 20260508124028 | 62 | 222 | 0.0 | 1.7 | 0.00 | 0.00 | 0.00 | 87 | 1015.2 |
| 20260508123534 | 62 | 222 | 0.0 | 1.7 | 0.00 | 0.00 | 0.00 | 87 | 1015.3 |
| 20260508123039 | 62 | 222 | 0.0 | 1.7 | 0.00 | 0.00 | 0.00 | 87 | 1015.3 |
| 20260508122523 | 62 | 222 | 0.0 | 1.7 | 0.00 | 0.00 | 0.00 | 87 | 1015.2 |
| 20260508122023 | 62 | 222 | 0.0 | 0.9 | 0.00 | 0.00 | 0.00 | 87 | 1015.2 |
| 20260508121522 | 62 | 222 | 0.0 | 1.7 | 0.00 | 0.00 | 0.00 | 87 | 1015.2 |
| 20260508121048 | 62 | 222 | 0.0 | 1.7 | 0.00 | 0.00 | 0.00 | 87 | 1015.2 |
| 20260508120532 | 62 | 222 | 0.0 | 1.7 | 0.00 | 0.00 | 0.00 | 87 | 1015.2 |
| 20260508120031 | 62 | 222 | 0.0 | 1.7 | 0.00 | 0.00 | 0.00 | 87 | 1015.2 |
| 20260508115536 | 62 | 222 | 0.0 | 1.7 | 0.00 | 0.00 | 0.00 | 87 | 1015.2 |
| 20260508115021 | 62 | 222 | 0.0 | 0.9 | 0.00 | 0.00 | 0.00 | 87 | 1015.1 |
| 20260508114549 | 62 | 222 | 0.0 | 1.7 | 0.00 | 0.00 | 0.00 | 87 | 1015.1 |
| 20260508114030 | 62 | 222 | 0.0 | 1.7 | 0.00 | 0.00 | 0.00 | 87 | 1015.1 |
| 20260508113536 | 62 | 222 | 0.0 | 1.7 | 0.00 | 0.00 | 0.00 | 87 | 1015.1 |
| 20260508113037 | 62 | 222 | 0.0 | 3.5 | 0.00 | 0.00 | 0.00 | 87 | 1015.1 |
| 20260508112519 | 62 | 222 | 0.9 | 3.5 | 0.00 | 0.00 | 0.00 | 87 | 1015.1 |
| 20260508112025 | 62 | 213 | 0.9 | 2.6 | 0.00 | 0.00 | 0.00 | 88 | 1015.2 |
| 20260508111531 | 62 | 213 | 0.0 | 0.9 | 0.00 | 0.00 | 0.00 | 88 | 1015.2 |
| 20260508111036 | 62 | 212 | 0.0 | 0.9 | 0.00 | 0.00 | 0.00 | 88 | 1015.2 |
| 20260508110521 | 62 | 212 | 0.0 | 0.9 | 0.00 | 0.00 | 0.00 | 88 | 1015.1 |
| 20260508110046 | 62 | 212 | 0.0 | 0.9 | 0.00 | 0.00 | 0.00 | 88 | 1015.0 |
| 20260508105551 | 62 | 212 | 0.0 | 0.0 | 0.00 | 0.00 | 0.00 | 88 | 1015.1 |